Find DMSP F-2

NORAD ID: 10033 Int'l Des: 1977-044 Owner: SAMSO Country: US operational
LEOCIRCULARRETROGRADE

Live Position

Loading 3D Globe...

About DMSP F-2

Description loading...

Upcoming Passes

Passes for default location (London). Set your location on the main map for personalized predictions.

Altitude History

Loading altitude history...

Two-Line Element Set

1 10033U 77044A 26105.59265363 .00000145 00000-0 72111-4 0 9998
2 10033 99.1237 150.8684 0038524 51.1667 309.2943 14.31431726359201
Epoch: Apr 15, 2026 • Age: 10 hours

Current Status

Altitude 809.8 km
Velocity 7.45 km/s
Sub-Earth Point -48.38°S, 43.41°W
Launch Date Jun 5, 1977
Age 48.8 years
Type other

Technical Details

Classification Payload
Mass 447.00 kg
Dry Mass 447.00 kg
Total Mass 1177.00 kg
Length 6.10 m
Diameter 1.50 m
Span 6.10 m
Shape Box + Pan
Manufacturer RCA
Bus Type Block 5D
Phase Status Attached in Orbit
Owner/State SAMSO/US

Most Searched